TimeEDT,TemperatureF,Dew PointF,Humidity,Sea Level PressureIn,VisibilityMPH,Wind Direction,Wind SpeedMPH,Gust SpeedMPH,PrecipitationIn,Events,Conditions,WindDirDegrees,DateUTC
12:11 AM,71.6,68.0,88,29.92,7.0,WSW,12.7,20.7,N/A,Rain,Rain,250,2013-06-26 04:11:00
12:32 AM,69.8,66.2,88,29.92,7.0,West,9.2,-,N/A,Rain,Rain,260,2013-06-26 04:32:00
12:52 AM,69.8,66.2,88,29.93,3.0,West,11.5,18.4,N/A,Rain,Rain,260,2013-06-26 04:52:00
1:12 AM,69.8,66.2,88,29.89,7.0,SW,3.5,-,N/A,Rain,Rain,220,2013-06-26 05:12:00
1:32 AM,69.8,66.2,88,29.85,10.0,SSW,6.9,-,N/A,Rain,Rain,210,2013-06-26 05:32:00
1:52 AM,69.8,66.2,88,29.81,10.0,SW,4.6,-,N/A,Rain,Rain,220,2013-06-26 05:52:00
2:12 AM,68.0,66.2,94,29.81,10.0,NNW,8.1,-,N/A,Rain,Light Rain,330,2013-06-26 06:12:00
2:32 AM,68.0,66.2,94,29.80,10.0,WSW,5.8,-,N/A,Rain,Light Rain,250,2013-06-26 06:32:00
2:52 AM,69.8,66.2,88,29.80,10.0,WSW,6.9,-,N/A,,Light Drizzle,240,2013-06-26 06:52:00
3:13 AM,69.8,66.2,88,29.81,10.0,NNW,5.8,-,N/A,Rain,Light Rain,340,2013-06-26 07:13:00
3:33 AM,69.8,66.2,88,29.82,10.0,Calm,Calm,-,N/A,,Scattered Clouds,0,2013-06-26 07:33:00
3:53 AM,68.0,66.2,94,29.82,10.0,Calm,Calm,-,N/A,,Scattered Clouds,0,2013-06-26 07:53:00
4:13 AM,68.0,66.2,94,29.82,7.0,East,3.5,-,N/A,,Clear,80,2013-06-26 08:13:00
4:33 AM,68.0,66.2,94,29.83,10.0,Calm,Calm,-,N/A,,Clear,0,2013-06-26 08:33:00
4:53 AM,68.0,66.2,94,29.84,10.0,Calm,Calm,-,N/A,,Clear,0,2013-06-26 08:53:00
5:13 AM,68.0,66.2,94,29.85,10.0,Calm,Calm,-,N/A,,Scattered Clouds,0,2013-06-26 09:13:00
5:33 AM,68.0,66.2,94,29.85,10.0,Calm,Calm,-,N/A,,Scattered Clouds,0,2013-06-26 09:33:00
5:53 AM,68.0,66.2,94,29.85,10.0,Calm,Calm,-,N/A,,Scattered Clouds,0,2013-06-26 09:53:00
6:14 AM,66.2,66.2,100,29.85,10.0,South,3.5,-,N/A,,Scattered Clouds,190,2013-06-26 10:14:00
6:34 AM,68.0,66.2,94,29.84,10.0,SSW,4.6,-,N/A,,Clear,200,2013-06-26 10:34:00
6:54 AM,69.8,66.2,88,29.85,10.0,South,4.6,-,N/A,,Clear,190,2013-06-26 10:54:00
7:14 AM,69.8,66.2,88,29.86,10.0,SSW,4.6,-,N/A,,Clear,210,2013-06-26 11:14:00
7:34 AM,69.8,66.2,88,29.87,10.0,SSW,4.6,-,N/A,,Clear,210,2013-06-26 11:34:00
7:54 AM,69.8,66.2,88,29.86,10.0,SSW,9.2,-,N/A,,Clear,200,2013-06-26 11:54:00
8:14 AM,69.8,66.2,88,29.87,10.0,SSW,6.9,-,N/A,,Scattered Clouds,210,2013-06-26 12:14:00
8:34 AM,71.6,68.0,88,29.86,10.0,SW,9.2,-,N/A,,Mostly Cloudy,220,2013-06-26 12:34:00
8:54 AM,71.6,68.0,88,29.87,10.0,WSW,8.1,-,N/A,,Overcast,240,2013-06-26 12:54:00
9:14 AM,71.6,69.8,94,29.87,10.0,SW,5.8,-,N/A,,Mostly Cloudy,230,2013-06-26 13:14:00
9:35 AM,73.4,69.8,88,29.88,10.0,WSW,9.2,-,N/A,,Mostly Cloudy,250,2013-06-26 13:35:00
9:55 AM,73.4,69.8,88,29.86,10.0,WSW,10.4,-,N/A,,Overcast,250,2013-06-26 13:55:00
10:15 AM,73.4,68.0,83,29.86,10.0,West,9.2,-,N/A,,Overcast,260,2013-06-26 14:15:00
10:35 AM,75.2,69.8,83,29.85,10.0,West,9.2,-,N/A,,Mostly Cloudy,270,2013-06-26 14:35:00
10:55 AM,75.2,69.8,83,29.86,10.0,West,8.1,-,N/A,,Scattered Clouds,260,2013-06-26 14:55:00
11:15 AM,75.2,69.8,83,29.86,10.0,WNW,5.8,-,N/A,,Clear,290,2013-06-26 15:15:00
11:35 AM,77.0,69.8,78,29.87,10.0,West,9.2,-,N/A,,Scattered Clouds,270,2013-06-26 15:35:00
11:55 AM,78.8,71.6,78,29.87,10.0,West,9.2,-,N/A,,Mostly Cloudy,260,2013-06-26 15:55:00
12:15 PM,78.8,69.8,74,29.87,10.0,West,12.7,18.4,N/A,,Overcast,260,2013-06-26 16:15:00
12:36 PM,78.8,69.8,74,29.87,10.0,West,10.4,-,N/A,,Overcast,280,2013-06-26 16:36:00
12:56 PM,78.8,69.8,74,29.86,10.0,West,9.2,16.1,N/A,,Overcast,270,2013-06-26 16:56:00
1:16 PM,78.8,71.6,78,29.85,10.0,West,6.9,-,N/A,,Overcast,280,2013-06-26 17:16:00
1:36 PM,78.8,71.6,78,29.84,10.0,NW,5.8,-,N/A,,Overcast,310,2013-06-26 17:36:00
1:56 PM,80.6,69.8,70,29.82,10.0,Calm,Calm,-,N/A,,Scattered Clouds,0,2013-06-26 17:56:00
2:16 PM,80.6,69.8,70,29.82,10.0,Calm,Calm,-,N/A,,Scattered Clouds,0,2013-06-26 18:16:00
2:31 PM,80.6,69.8,70,29.82,10.0,Calm,Calm,-,N/A,,Scattered Clouds,0,2013-06-26 18:31:00
2:51 PM,80.6,69.8,70,29.82,10.0,Calm,Calm,-,N/A,,Scattered Clouds,0,2013-06-26 18:51:00
3:11 PM,80.6,71.6,74,29.82,10.0,South,5.8,-,N/A,,Scattered Clouds,190,2013-06-26 19:11:00
3:32 PM,80.6,71.6,74,29.82,10.0,SE,4.6,-,N/A,,Mostly Cloudy,140,2013-06-26 19:32:00
3:52 PM,80.6,71.6,74,29.82,10.0,South,4.6,-,N/A,,Overcast,170,2013-06-26 19:52:00
4:12 PM,82.4,71.6,70,29.81,10.0,SE,4.6,-,N/A,,Scattered Clouds,130,2013-06-26 20:12:00
4:32 PM,82.4,71.6,70,29.80,10.0,SSE,6.9,-,N/A,,Scattered Clouds,150,2013-06-26 20:32:00
4:52 PM,82.4,71.6,70,29.80,10.0,South,3.5,-,N/A,,Scattered Clouds,190,2013-06-26 20:52:00
5:12 PM,82.4,71.6,70,29.79,10.0,South,3.5,-,N/A,,Scattered Clouds,190,2013-06-26 21:12:00
5:32 PM,82.4,69.8,66,29.79,10.0,SE,4.6,-,N/A,,Scattered Clouds,140,2013-06-26 21:32:00
5:52 PM,82.4,69.8,66,29.78,10.0,Calm,Calm,-,N/A,,Scattered Clouds,0,2013-06-26 21:52:00
6:12 PM,82.4,68.0,62,29.77,10.0,SSE,3.5,-,N/A,,Scattered Clouds,150,2013-06-26 22:12:00
6:32 PM,82.4,71.6,70,29.76,10.0,East,9.2,-,N/A,,Clear,80,2013-06-26 22:32:00
6:53 PM,80.6,71.6,74,29.76,10.0,East,5.8,-,N/A,,Clear,90,2013-06-26 22:53:00
7:13 PM,80.6,71.6,74,29.75,10.0,ESE,6.9,-,N/A,,Clear,120,2013-06-26 23:13:00
7:33 PM,78.8,69.8,74,29.76,10.0,ESE,6.9,-,N/A,,Clear,120,2013-06-26 23:33:00
7:53 PM,78.8,71.6,78,29.76,10.0,East,4.6,-,N/A,,Clear,100,2013-06-26 23:53:00
8:13 PM,77.0,71.6,83,29.77,10.0,East,4.6,-,N/A,,Scattered Clouds,100,2013-06-27 00:13:00
8:33 PM,77.0,71.6,83,29.77,10.0,ESE,4.6,-,N/A,,Scattered Clouds,110,2013-06-27 00:33:00
8:53 PM,75.2,71.6,89,29.77,1.2,South,5.8,-,N/A,Rain,Light Rain,180,2013-06-27 00:53:00
9:13 PM,75.2,71.6,89,29.78,7.0,SSW,8.1,-,N/A,Rain,Rain,200,2013-06-27 01:13:00
9:34 PM,71.6,69.8,94,29.78,7.0,SSW,9.2,-,N/A,Rain,Rain,200,2013-06-27 01:34:00
9:54 PM,71.6,68.0,88,29.77,5.0,Calm,Calm,-,N/A,Rain,Heavy Rain,0,2013-06-27 01:54:00
10:14 PM,71.6,69.8,94,29.76,10.0,Calm,Calm,-,N/A,Rain,Light Rain,0,2013-06-27 02:14:00
10:34 PM,71.6,69.8,94,29.75,10.0,Calm,Calm,-,N/A,,Mostly Cloudy,0,2013-06-27 02:34:00
10:54 PM,69.8,68.0,94,29.74,10.0,Calm,Calm,-,N/A,,Scattered Clouds,0,2013-06-27 02:54:00
11:14 PM,69.8,69.8,100,29.74,10.0,Calm,Calm,-,N/A,,Scattered Clouds,0,2013-06-27 03:14:00
11:34 PM,69.8,69.8,100,29.75,7.0,Calm,Calm,-,N/A,,Mostly Cloudy,0,2013-06-27 03:34:00
11:54 PM,71.6,69.8,94,29.76,7.0,Calm,Calm,-,N/A,,Overcast,0,2013-06-27 03:54:00